| time (UTC) | temp C | wind direction | speed KPH | gust KPH | rain 1hr cm | rain 24hr cm | rain mn cm | humidity % | barometer mb |
| 20260508180236 | 20 | 250 | 3.2 | 3.2 | 0.00 | 0.00 | 0.00 | 53 | 1013.0 |
| 20260508175735 | 20 | 293 | 3.2 | 3.2 | 0.00 | 0.00 | 0.00 | 51 | 1013.0 |
| 20260508175236 | 20 | 262 | 3.2 | 6.4 | 0.00 | 0.00 | 0.00 | 50 | 1013.0 |
| 20260508174735 | 20 | 261 | 3.2 | 6.4 | 0.00 | 0.00 | 0.00 | 50 | 1013.0 |
| 20260508174235 | 19 | 271 | 4.8 | 4.8 | 0.00 | 0.00 | 0.00 | 53 | 1013.0 |
| 20260508173735 | 19 | 285 | 4.8 | 8.0 | 0.00 | 0.00 | 0.00 | 52 | 1013.0 |
| 20260508173235 | 19 | 214 | 0.0 | 3.2 | 0.00 | 0.00 | 0.00 | 56 | 1013.0 |
| 20260508172737 | 18 | 266 | 3.2 | 4.8 | 0.00 | 0.00 | 0.00 | 55 | 1013.0 |
| 20260508172236 | 18 | 274 | 3.2 | 8.0 | 0.00 | 0.00 | 0.00 | 53 | 1013.0 |
| 20260508171736 | 18 | 224 | 0.0 | 4.8 | 0.00 | 0.00 | 0.00 | 55 | 1013.0 |
| 20260508171235 | 18 | 213 | 1.6 | 3.2 | 0.00 | 0.00 | 0.00 | 57 | 1013.0 |
| 20260508170736 | 18 | 212 | 0.0 | 1.6 | 0.00 | 0.00 | 0.00 | 59 | 1014.0 |
| 20260508170236 | 18 | 252 | 1.6 | 1.6 | 0.00 | 0.00 | 0.00 | 56 | 1013.0 |
| 20260508165737 | 18 | 161 | 1.6 | 3.2 | 0.00 | 0.00 | 0.00 | 55 | 1014.0 |
| 20260508165236 | 18 | 181 | 0.0 | 3.2 | 0.00 | 0.00 | 0.00 | 57 | 1014.0 |
| 20260508164735 | 18 | 224 | 0.0 | 1.6 | 0.00 | 0.00 | 0.00 | 55 | 1014.0 |
| 20260508164236 | 17 | 224 | 0.0 | 1.6 | 0.00 | 0.00 | 0.00 | 56 | 1014.0 |
| 20260508163737 | 17 | 210 | 1.6 | 4.8 | 0.00 | 0.00 | 0.00 | 56 | 1014.0 |
| 20260508163235 | 17 | 205 | 0.0 | 1.6 | 0.00 | 0.00 | 0.00 | 59 | 1014.0 |
| 20260508162736 | 17 | 265 | 3.2 | 6.4 | 0.00 | 0.00 | 0.00 | 59 | 1014.0 |
| 20260508162235 | 17 | 209 | 0.0 | 1.6 | 0.00 | 0.00 | 0.00 | 59 | 1014.0 |
| 20260508161735 | 17 | 211 | 0.0 | 3.2 | 0.00 | 0.00 | 0.00 | 59 | 1014.0 |
| 20260508161237 | 17 | 195 | 0.0 | 1.6 | 0.00 | 0.00 | 0.00 | 61 | 1014.0 |
| 20260508160735 | 17 | 262 | 0.0 | 3.2 | 0.00 | 0.00 | 0.00 | 60 | 1014.0 |
| 20260508160236 | 17 | 243 | 0.0 | 3.2 | 0.00 | 0.00 | 0.00 | 60 | 1014.0 |
| 20260508155735 | 17 | 240 | 0.0 | 1.6 | 0.00 | 0.00 | 0.00 | 59 | 1014.0 |
| 20260508155236 | 17 | 208 | 0.0 | 1.6 | 0.00 | 0.00 | 0.00 | 60 | 1015.0 |
| 20260508154736 | 17 | 157 | 0.0 | 1.6 | 0.00 | 0.00 | 0.00 | 59 | 1015.0 |
| 20260508154236 | 17 | 242 | 0.0 | 3.2 | 0.00 | 0.00 | 0.00 | 59 | 1015.0 |
| 20260508153735 | 17 | 241 | 0.0 | 3.2 | 0.00 | 0.00 | 0.00 | 59 | 1015.0 |
| 20260508153235 | 16 | 253 | 3.2 | 4.8 | 0.00 | 0.00 | 0.00 | 58 | 1015.0 |
| 20260508152735 | 16 | 224 | 0.0 | 4.8 | 0.00 | 0.00 | 0.00 | 59 | 1015.0 |
| 20260508152235 | 16 | 230 | 0.0 | 3.2 | 0.00 | 0.00 | 0.00 | 59 | 1014.0 |
| 20260508151735 | 17 | 246 | 1.6 | 3.2 | 0.00 | 0.00 | 0.00 | 59 | 1015.0 |
| 20260508151235 | 16 | 202 | 0.0 | 3.2 | 0.00 | 0.00 | 0.00 | 59 | 1014.0 |
| 20260508150736 | 16 | 255 | 1.6 | 1.6 | 0.00 | 0.00 | 0.00 | 59 | 1015.0 |
| 20260508150235 | 16 | 255 | 1.6 | 4.8 | 0.00 | 0.00 | 0.00 | 59 | 1015.0 |
| 20260508145736 | 16 | 274 | 1.6 | 3.2 | 0.00 | 0.00 | 0.00 | 57 | 1015.0 |
| 20260508145235 | 16 | 245 | 8.0 | 8.0 | 0.00 | 0.00 | 0.00 | 57 | 1015.0 |
| 20260508144736 | 16 | 242 | 3.2 | 8.0 | 0.00 | 0.00 | 0.00 | 55 | 1015.0 |
| 20260508144235 | 17 | 271 | 0.0 | 3.2 | 0.00 | 0.00 | 0.00 | 56 | 1015.0 |
| 20260508143735 | 17 | 222 | 1.6 | 3.2 | 0.00 | 0.00 | 0.00 | 55 | 1015.0 |
| 20260508143236 | 17 | 284 | 3.2 | 6.4 | 0.00 | 0.00 | 0.00 | 54 | 1015.0 |
| 20260508142737 | 17 | 222 | 0.0 | 3.2 | 0.00 | 0.00 | 0.00 | 55 | 1015.0 |
| 20260508142236 | 18 | 247 | 3.2 | 6.4 | 0.00 | 0.00 | 0.00 | 52 | 1016.0 |
| 20260508141736 | 18 | 245 | 4.8 | 4.8 | 0.00 | 0.00 | 0.00 | 52 | 1015.0 |
| 20260508141236 | 18 | 281 | 3.2 | 4.8 | 0.00 | 0.00 | 0.00 | 52 | 1015.0 |
| 20260508140736 | 17 | 217 | 4.8 | 6.4 | 0.00 | 0.00 | 0.00 | 51 | 1015.0 |
| 20260508140238 | 17 | 259 | 6.4 | 8.0 | 0.00 | 0.00 | 0.00 | 53 | 1015.0 |
| 20260508135736 | 17 | 250 | 1.6 | 4.8 | 0.00 | 0.00 | 0.00 | 54 | 1015.0 |
| 20260508135235 | 17 | 224 | 4.8 | 4.8 | 0.00 | 0.00 | 0.00 | 55 | 1015.0 |
| 20260508134736 | 16 | 233 | 1.6 | 3.2 | 0.00 | 0.00 | 0.00 | 57 | 1015.0 |
| 20260508134235 | 16 | 199 | 1.6 | 3.2 | 0.00 | 0.00 | 0.00 | 57 | 1015.0 |
| 20260508133736 | 16 | 218 | 0.0 | 4.8 | 0.00 | 0.00 | 0.00 | 61 | 1015.0 |
| 20260508133237 | 15 | 223 | 1.6 | 3.2 | 0.00 | 0.00 | 0.00 | 61 | 1015.0 |
| 20260508132736 | 15 | 254 | 0.0 | 1.6 | 0.00 | 0.00 | 0.00 | 65 | 1015.0 |
| 20260508132237 | 15 | 218 | 0.0 | 1.6 | 0.00 | 0.00 | 0.00 | 66 | 1015.0 |
| 20260508131736 | 14 | 177 | 1.6 | 3.2 | 0.00 | 0.00 | 0.00 | 68 | 1015.0 |
| 20260508131236 | 13 | 142 | 0.0 | 3.2 | 0.00 | 0.00 | 0.00 | 69 | 1015.0 |
| 20260508130735 | 13 | 121 | 0.0 | 1.6 | 0.00 | 0.00 | 0.00 | 70 | 1015.0 |
| 20260508130236 | 13 | 249 | 0.0 | 1.6 | 0.00 | 0.00 | 0.00 | 70 | 1015.0 |
| 20260508125735 | 13 | 192 | 0.0 | 1.6 | 0.00 | 0.00 | 0.00 | 71 | 1015.0 |
| 20260508125235 | 12 | 173 | 1.6 | 3.2 | 0.00 | 0.00 | 0.00 | 73 | 1015.0 |
| 20260508124736 | 12 | 137 | 0.0 | 4.8 | 0.00 | 0.00 | 0.00 | 74 | 1015.0 |
| 20260508124235 | 12 | 132 | 1.6 | 3.2 | 0.00 | 0.00 | 0.00 | 72 | 1015.0 |
| 20260508123736 | 12 | 96 | 0.0 | 3.2 | 0.00 | 0.00 | 0.00 | 72 | 1015.0 |
| 20260508123235 | 12 | 135 | 0.0 | 3.2 | 0.00 | 0.00 | 0.00 | 72 | 1015.0 |
| 20260508122735 | 11 | 111 | 0.0 | 3.2 | 0.00 | 0.00 | 0.00 | 73 | 1015.0 |
| 20260508122236 | 11 | 132 | 4.8 | 4.8 | 0.00 | 0.00 | 0.00 | 74 | 1015.0 |
| 20260508121736 | 11 | 103 | 3.2 | 4.8 | 0.00 | 0.00 | 0.00 | 75 | 1015.0 |
| 20260508121236 | 10 | 152 | 0.0 | 3.2 | 0.00 | 0.00 | 0.00 | 76 | 1015.0 |
| 20260508120736 | 10 | 143 | 1.6 | 4.8 | 0.00 | 0.00 | 0.00 | 75 | 1015.0 |
| 20260508120235 | 10 | 162 | 0.0 | 3.2 | 0.00 | 0.00 | 0.00 | 75 | 1015.0 |
| 20260508115735 | 10 | 147 | 0.0 | 3.2 | 0.00 | 0.00 | 0.00 | 75 | 1015.0 |
| 20260508115235 | 10 | 155 | 1.6 | 4.8 | 0.00 | 0.00 | 0.00 | 75 | 1015.0 |
| 20260508114735 | 10 | 170 | 1.6 | 3.2 | 0.00 | 0.00 | 0.00 | 76 | 1015.0 |
| 20260508114235 | 10 | 149 | 0.0 | 4.8 | 0.00 | 0.00 | 0.00 | 76 | 1015.0 |
| 20260508113736 | 10 | 127 | 0.0 | 1.6 | 0.00 | 0.00 | 0.00 | 76 | 1015.0 |
| 20260508113236 | 10 | 148 | 0.0 | 3.2 | 0.00 | 0.00 | 0.00 | 76 | 1015.0 |
| 20260508112736 | 10 | 154 | 0.0 | 3.2 | 0.00 | 0.00 | 0.00 | 76 | 1015.0 |
| 20260508112235 | 9 | 117 | 1.6 | 3.2 | 0.00 | 0.00 | 0.00 | 75 | 1015.0 |
| 20260508111735 | 9 | 117 | 0.0 | 3.2 | 0.00 | 0.00 | 0.00 | 75 | 1015.0 |
| 20260508111236 | 9 | 134 | 1.6 | 4.8 | 0.00 | 0.00 | 0.00 | 75 | 1015.0 |
| 20260508110736 | 9 | 133 | 1.6 | 3.2 | 0.00 | 0.00 | 0.00 | 75 | 1015.0 |
| 20260508110235 | 9 | 127 | 1.6 | 4.8 | 0.00 | 0.00 | 0.00 | 74 | 1015.0 |
| 20260508105735 | 10 | 141 | 1.6 | 4.8 | 0.00 | 0.00 | 0.00 | 74 | 1014.0 |
| 20260508105235 | 10 | 133 | 3.2 | 3.2 | 0.00 | 0.00 | 0.00 | 73 | 1015.0 |
| 20260508104735 | 10 | 137 | 0.0 | 4.8 | 0.00 | 0.00 | 0.00 | 73 | 1014.0 |
| 20260508104236 | 9 | 134 | 3.2 | 3.2 | 0.00 | 0.00 | 0.00 | 73 | 1015.0 |
| 20260508103735 | 9 | 154 | 1.6 | 3.2 | 0.00 | 0.00 | 0.00 | 72 | 1015.0 |
| 20260508103236 | 9 | 129 | 0.0 | 4.8 | 0.00 | 0.00 | 0.00 | 73 | 1015.0 |
| 20260508102736 | 9 | 117 | 1.6 | 1.6 | 0.00 | 0.00 | 0.00 | 73 | 1015.0 |
| 20260508102236 | 8 | 134 | 0.0 | 3.2 | 0.00 | 0.00 | 0.00 | 73 | 1015.0 |
| 20260508101735 | 8 | 124 | 0.0 | 0.0 | 0.00 | 0.00 | 0.00 | 74 | 1015.0 |
| 20260508101235 | 8 | 142 | 0.0 | 3.2 | 0.00 | 0.00 | 0.00 | 74 | 1015.0 |
| 20260508100736 | 8 | 117 | 0.0 | 1.6 | 0.00 | 0.00 | 0.00 | 74 | 1015.0 |
| 20260508100235 | 8 | 116 | 0.0 | 1.6 | 0.00 | 0.00 | 0.00 | 74 | 1015.0 |
| 20260508095735 | 8 | 109 | 3.2 | 3.2 | 0.00 | 0.00 | 0.00 | 74 | 1015.0 |
| 20260508095235 | 8 | 129 | 0.0 | 0.0 | 0.00 | 0.00 | 0.00 | 75 | 1015.0 |
| 20260508094735 | 8 | 139 | 0.0 | 1.6 | 0.00 | 0.00 | 0.00 | 74 | 1015.0 |
| 20260508094235 | 8 | 121 | 0.0 | 3.2 | 0.00 | 0.00 | 0.00 | 75 | 1015.0 |
| 20260508093736 | 8 | 73 | 0.0 | 1.6 | 0.00 | 0.00 | 0.00 | 75 | 1015.0 |
| 20260508093236 | 8 | 136 | 0.0 | 0.0 | 0.00 | 0.00 | 0.00 | 74 | 1015.0 |
| 20260508092736 | 8 | 124 | 0.0 | 3.2 | 0.00 | 0.00 | 0.00 | 74 | 1015.0 |
| 20260508092235 | 9 | 135 | 0.0 | 3.2 | 0.00 | 0.00 | 0.00 | 73 | 1015.0 |
| 20260508091735 | 9 | 154 | 0.0 | 3.2 | 0.00 | 0.00 | 0.00 | 73 | 1015.0 |
| 20260508091236 | 9 | 120 | 0.0 | 3.2 | 0.00 | 0.00 | 0.00 | 73 | 1015.0 |
| 20260508090736 | 9 | 77 | 0.0 | 0.0 | 0.00 | 0.00 | 0.00 | 72 | 1015.0 |
| 20260508090235 | 9 | 98 | 0.0 | 3.2 | 0.00 | 0.00 | 0.00 | 72 | 1015.0 |
| 20260508085735 | 10 | 142 | 0.0 | 0.0 | 0.00 | 0.00 | 0.00 | 71 | 1015.0 |
| 20260508085235 | 10 | 129 | 0.0 | 3.2 | 0.00 | 0.00 | 0.00 | 71 | 1015.0 |
| 20260508084736 | 10 | 145 | 1.6 | 1.6 | 0.00 | 0.00 | 0.00 | 71 | 1015.0 |
| 20260508084236 | 10 | 142 | 0.0 | 3.2 | 0.00 | 0.00 | 0.00 | 70 | 1015.0 |
| 20260508083736 | 10 | 130 | 0.0 | 1.6 | 0.00 | 0.00 | 0.00 | 70 | 1015.0 |
| 20260508083235 | 10 | 124 | 0.0 | 3.2 | 0.00 | 0.00 | 0.00 | 69 | 1015.0 |
| 20260508082736 | 10 | 143 | 1.6 | 3.2 | 0.00 | 0.00 | 0.00 | 69 | 1015.0 |
| 20260508082236 | 10 | 147 | 3.2 | 3.2 | 0.00 | 0.00 | 0.00 | 69 | 1015.0 |
| 20260508081735 | 10 | 155 | 1.6 | 4.8 | 0.00 | 0.00 | 0.00 | 68 | 1015.0 |
| 20260508081235 | 10 | 143 | 1.6 | 3.2 | 0.00 | 0.00 | 0.00 | 68 | 1015.0 |
| 20260508080739 | 10 | 135 | 1.6 | 4.8 | 0.00 | 0.00 | 0.00 | 68 | 1015.0 |
| 20260508080235 | 10 | 152 | 1.6 | 4.8 | 0.00 | 0.00 | 0.00 | 68 | 1015.0 |
| 20260508075735 | 10 | 131 | 3.2 | 3.2 | 0.00 | 0.00 | 0.00 | 67 | 1015.0 |
| 20260508075236 | 10 | 129 | 0.0 | 0.0 | 0.00 | 0.00 | 0.00 | 67 | 1015.0 |
| 20260508074736 | 10 | 123 | 0.0 | 3.2 | 0.00 | 0.00 | 0.00 | 67 | 1015.0 |
| 20260508074235 | 10 | 137 | 1.6 | 3.2 | 0.00 | 0.00 | 0.00 | 67 | 1015.0 |
| 20260508073735 | 10 | 116 | 0.0 | 1.6 | 0.00 | 0.00 | 0.00 | 67 | 1015.0 |
| 20260508073236 | 10 | 138 | 0.0 | 3.2 | 0.00 | 0.00 | 0.00 | 66 | 1015.0 |
| 20260508072736 | 10 | 158 | 0.0 | 3.2 | 0.00 | 0.00 | 0.00 | 66 | 1015.0 |
| 20260508072236 | 10 | 142 | 1.6 | 3.2 | 0.00 | 0.00 | 0.00 | 65 | 1015.0 |
| 20260508071736 | 10 | 142 | 0.0 | 1.6 | 0.00 | 0.00 | 0.00 | 65 | 1015.0 |
| 20260508071236 | 10 | 136 | 0.0 | 1.6 | 0.00 | 0.00 | 0.00 | 65 | 1015.0 |
| 20260508070735 | 10 | 150 | 0.0 | 1.6 | 0.00 | 0.00 | 0.00 | 65 | 1015.0 |
| 20260508070236 | 10 | 143 | 0.0 | 1.6 | 0.00 | 0.00 | 0.00 | 65 | 1015.0 |
| 20260508065735 | 10 | 148 | 0.0 | 1.6 | 0.00 | 0.00 | 0.00 | 66 | 1015.0 |
| 20260508065235 | 10 | 151 | 0.0 | 3.2 | 0.00 | 0.00 | 0.00 | 66 | 1015.0 |
| 20260508064736 | 10 | 143 | 3.2 | 3.2 | 0.00 | 0.00 | 0.00 | 66 | 1015.0 |
| 20260508064235 | 10 | 126 | 1.6 | 3.2 | 0.00 | 0.00 | 0.00 | 66 | 1015.0 |
| 20260508063735 | 10 | 138 | 0.0 | 1.6 | 0.00 | 0.00 | 0.00 | 66 | 1015.0 |
| 20260508063235 | 10 | 147 | 0.0 | 1.6 | 0.00 | 0.00 | 0.00 | 66 | 1015.0 |
| 20260508062736 | 10 | 124 | 0.0 | 3.2 | 0.00 | 0.00 | 0.00 | 66 | 1016.0 |
| 20260508062235 | 10 | 129 | 0.0 | 0.0 | 0.00 | 0.00 | 0.00 | 66 | 1016.0 |
| 20260508061735 | 10 | 154 | 0.0 | 1.6 | 0.00 | 0.00 | 0.00 | 66 | 1016.0 |
| 20260508061236 | 10 | 150 | 1.6 | 1.6 | 0.00 | 0.00 | 0.00 | 66 | 1016.0 |
| 20260508060735 | 10 | 115 | 1.6 | 1.6 | 0.00 | 0.00 | 0.00 | 66 | 1016.0 |
| 20260508060235 | 10 | 141 | 0.0 | 1.6 | 0.00 | 0.00 | 0.00 | 67 | 1016.0 |
| 20260508055735 | 10 | 113 | 0.0 | 1.6 | 0.00 | 0.00 | 0.00 | 67 | 1016.0 |
| 20260508055235 | 10 | 129 | 1.6 | 1.6 | 0.00 | 0.00 | 0.00 | 67 | 1016.0 |
| 20260508054735 | 10 | 142 | 1.6 | 1.6 | 0.00 | 0.00 | 0.00 | 68 | 1016.0 |
| 20260508054235 | 10 | 143 | 1.6 | 3.2 | 0.00 | 0.00 | 0.00 | 68 | 1016.0 |
| 20260508053737 | 10 | 129 | 0.0 | 3.2 | 0.00 | 0.00 | 0.00 | 68 | 1016.0 |
| 20260508053236 | 10 | 113 | 0.0 | 1.6 | 0.00 | 0.00 | 0.00 | 67 | 1016.0 |
| 20260508052735 | 10 | 129 | 0.0 | 1.6 | 0.00 | 0.00 | 0.00 | 67 | 1016.0 |
| 20260508052235 | 11 | 138 | 0.0 | 1.6 | 0.00 | 0.00 | 0.00 | 67 | 1016.0 |
| 20260508051735 | 11 | 127 | 1.6 | 1.6 | 0.00 | 0.00 | 0.00 | 68 | 1016.0 |
| 20260508051235 | 11 | 154 | 0.0 | 3.2 | 0.00 | 0.00 | 0.00 | 68 | 1016.0 |
| 20260508050735 | 11 | 143 | 1.6 | 3.2 | 0.00 | 0.00 | 0.00 | 68 | 1016.0 |
| 20260508050236 | 11 | 141 | 0.0 | 1.6 | 0.00 | 0.00 | 0.00 | 67 | 1016.0 |
| 20260508045736 | 11 | 106 | 0.0 | 1.6 | 0.00 | 0.00 | 0.00 | 67 | 1016.0 |
| 20260508045236 | 11 | 125 | 0.0 | 1.6 | 0.00 | 0.00 | 0.00 | 67 | 1016.0 |
| 20260508044736 | 10 | 117 | 0.0 | 0.0 | 0.00 | 0.00 | 0.00 | 67 | 1016.0 |
| 20260508044235 | 10 | 105 | 0.0 | 1.6 | 0.00 | 0.00 | 0.00 | 68 | 1016.0 |
| 20260508043736 | 10 | 113 | 0.0 | 3.2 | 0.00 | 0.00 | 0.00 | 70 | 1016.0 |
| 20260508043235 | 10 | 113 | 0.0 | 1.6 | 0.00 | 0.00 | 0.00 | 70 | 1016.0 |
| 20260508042735 | 10 | 141 | 0.0 | 1.6 | 0.00 | 0.00 | 0.00 | 70 | 1016.0 |
| 20260508042235 | 10 | 149 | 0.0 | 3.2 | 0.00 | 0.00 | 0.00 | 70 | 1016.0 |
| 20260508041735 | 10 | 205 | 0.0 | 3.2 | 0.00 | 0.00 | 0.00 | 71 | 1016.0 |
| 20260508041236 | 10 | 147 | 1.6 | 3.2 | 0.00 | 0.00 | 0.00 | 70 | 1016.0 |
| 20260508040737 | 10 | 124 | 0.0 | 1.6 | 0.00 | 0.00 | 0.00 | 70 | 1016.0 |
| 20260508040236 | 11 | 215 | 0.0 | 3.2 | 0.00 | 0.00 | 0.00 | 69 | 1016.0 |
| 20260508035735 | 11 | 111 | 0.0 | 0.0 | 0.00 | 0.00 | 0.00 | 68 | 1016.0 |
| 20260508035235 | 11 | 122 | 0.0 | 1.6 | 0.00 | 0.00 | 0.00 | 67 | 1016.0 |
| 20260508034736 | 11 | 157 | 0.0 | 4.8 | 0.00 | 0.00 | 0.00 | 66 | 1016.0 |
| 20260508034236 | 11 | 110 | 0.0 | 1.6 | 0.00 | 0.00 | 0.00 | 64 | 1015.0 |
| 20260508033735 | 11 | 116 | 0.0 | 0.0 | 0.00 | 0.00 | 0.00 | 62 | 1016.0 |
| 20260508033235 | 11 | 117 | 0.0 | 0.0 | 0.00 | 0.00 | 0.00 | 62 | 1016.0 |
| 20260508032739 | 11 | 117 | 0.0 | 1.6 | 0.00 | 0.00 | 0.00 | 62 | 1016.0 |
| 20260508032237 | 12 | 129 | 0.0 | 1.6 | 0.00 | 0.00 | 0.00 | 61 | 1016.0 |
| 20260508031736 | 12 | 224 | 0.0 | 3.2 | 0.00 | 0.00 | 0.00 | 61 | 1016.0 |
| 20260508031236 | 12 | 154 | 1.6 | 4.8 | 0.00 | 0.00 | 0.00 | 61 | 1016.0 |
| 20260508030736 | 12 | 147 | 0.0 | 1.6 | 0.00 | 0.00 | 0.00 | 60 | 1016.0 |
| 20260508030235 | 12 | 135 | 0.0 | 1.6 | 0.00 | 0.00 | 0.00 | 59 | 1016.0 |
| 20260508025735 | 12 | 25 | 0.0 | 0.0 | 0.00 | 0.00 | 0.00 | 59 | 1016.0 |
| 20260508025235 | 12 | 230 | 0.0 | 0.0 | 0.00 | 0.00 | 0.00 | 57 | 1016.0 |
| 20260508024735 | 12 | 230 | 0.0 | 0.0 | 0.00 | 0.00 | 0.00 | 56 | 1016.0 |
| 20260508024235 | 12 | 230 | 0.0 | 0.0 | 0.00 | 0.00 | 0.00 | 56 | 1016.0 |
| 20260508023736 | 13 | 230 | 0.0 | 0.0 | 0.00 | 0.00 | 0.00 | 55 | 1016.0 |
| 20260508023236 | 13 | 129 | 0.0 | 0.0 | 0.00 | 0.00 | 0.00 | 55 | 1016.0 |
| 20260508022735 | 13 | 326 | 0.0 | 0.0 | 0.00 | 0.00 | 0.00 | 54 | 1016.0 |
| 20260508022236 | 13 | 326 | 0.0 | 0.0 | 0.00 | 0.00 | 0.00 | 53 | 1016.0 |
| 20260508021735 | 14 | 326 | 0.0 | 0.0 | 0.00 | 0.00 | 0.00 | 51 | 1016.0 |
| 20260508021235 | 14 | 309 | 0.0 | 1.6 | 0.00 | 0.00 | 0.00 | 51 | 1016.0 |
| 20260508020736 | 14 | 129 | 0.0 | 0.0 | 0.00 | 0.00 | 0.00 | 50 | 1016.0 |
| 20260508020235 | 14 | 143 | 0.0 | 1.6 | 0.00 | 0.00 | 0.00 | 49 | 1016.0 |
| 20260508015736 | 15 | 146 | 0.0 | 3.2 | 0.00 | 0.00 | 0.00 | 48 | 1016.0 |
| 20260508015235 | 15 | 147 | 0.0 | 0.0 | 0.00 | 0.00 | 0.00 | 47 | 1015.0 |
| 20260508014736 | 15 | 142 | 0.0 | 0.0 | 0.00 | 0.00 | 0.00 | 47 | 1015.0 |
| 20260508014238 | 15 | 135 | 0.0 | 1.6 | 0.00 | 0.00 | 0.00 | 47 | 1015.0 |
| 20260508013737 | 15 | 217 | 0.0 | 0.0 | 0.00 | 0.00 | 0.00 | 47 | 1015.0 |
| 20260508013236 | 15 | 129 | 0.0 | 0.0 | 0.00 | 0.00 | 0.00 | 48 | 1015.0 |
| 20260508012735 | 15 | 139 | 1.6 | 1.6 | 0.00 | 0.00 | 0.00 | 47 | 1015.0 |
| 20260508012237 | 15 | 135 | 0.0 | 1.6 | 0.00 | 0.00 | 0.00 | 46 | 1015.0 |
| 20260508011735 | 16 | 117 | 0.0 | 1.6 | 0.00 | 0.00 | 0.00 | 46 | 1015.0 |
| 20260508011236 | 16 | 142 | 0.0 | 0.0 | 0.00 | 0.00 | 0.00 | 46 | 1015.0 |
| 20260508010735 | 16 | 135 | 0.0 | 1.6 | 0.00 | 0.00 | 0.00 | 44 | 1015.0 |
| 20260508010235 | 16 | 219 | 0.0 | 0.0 | 0.00 | 0.00 | 0.00 | 41 | 1015.0 |
| 20260508005736 | 17 | 242 | 0.0 | 1.6 | 0.00 | 0.00 | 0.00 | 40 | 1015.0 |
| 20260508005236 | 17 | 227 | 0.0 | 0.0 | 0.00 | 0.00 | 0.00 | 38 | 1015.0 |
| 20260508004735 | 17 | 246 | 0.0 | 1.6 | 0.00 | 0.00 | 0.00 | 38 | 1015.0 |
| 20260508004237 | 17 | 224 | 0.0 | 0.0 | 0.00 | 0.00 | 0.00 | 38 | 1015.0 |
| 20260508003735 | 17 | 154 | 0.0 | 1.6 | 0.00 | 0.00 | 0.00 | 37 | 1015.0 |
| 20260508003236 | 18 | 157 | 0.0 | 3.2 | 0.00 | 0.00 | 0.00 | 37 | 1015.0 |
| 20260508002736 | 18 | 241 | 0.0 | 3.2 | 0.00 | 0.00 | 0.00 | 37 | 1015.0 |
| 20260508002235 | 18 | 245 | 1.6 | 1.6 | 0.00 | 0.00 | 0.00 | 36 | 1015.0 |
| 20260508001735 | 18 | 225 | 1.6 | 1.6 | 0.00 | 0.00 | 0.00 | 37 | 1015.0 |
| 20260508001236 | 18 | 222 | 0.0 | 3.2 | 0.00 | 0.00 | 0.00 | 36 | 1015.0 |
| 20260508000735 | 18 | 257 | 1.6 | 4.8 | 0.00 | 0.00 | 0.00 | 35 | 1015.0 |
| 20260508000235 | 18 | 233 | 3.2 | 3.2 | 0.00 | 0.00 | 0.00 | 35 | 1015.0 |
| 20260507235735 | 18 | 280 | 1.6 | 4.8 | 0.00 | 0.00 | 0.00 | 35 | 1015.0 |
| 20260507235236 | 18 | 212 | 1.6 | 4.8 | 0.00 | 0.00 | 0.00 | 35 | 1015.0 |
| 20260507234735 | 18 | 229 | 3.2 | 6.4 | 0.00 | 0.00 | 0.00 | 34 | 1015.0 |
| 20260507234235 | 18 | 255 | 4.8 | 6.4 | 0.00 | 0.00 | 0.00 | 34 | 1015.0 |
| 20260507233735 | 19 | 271 | 6.4 | 11.3 | 0.00 | 0.00 | 0.00 | 34 | 1015.0 |
| 20260507233235 | 19 | 280 | 4.8 | 9.7 | 0.00 | 0.00 | 0.00 | 34 | 1015.0 |
| 20260507232735 | 19 | 258 | 0.0 | 9.7 | 0.00 | 0.00 | 0.00 | 34 | 1015.0 |
| 20260507232236 | 19 | 264 | 3.2 | 6.4 | 0.00 | 0.00 | 0.00 | 33 | 1015.0 |
| 20260507231735 | 19 | 195 | 3.2 | 8.0 | 0.00 | 0.00 | 0.00 | 33 | 1015.0 |
| 20260507231235 | 19 | 248 | 4.8 | 8.0 | 0.00 | 0.00 | 0.00 | 33 | 1015.0 |
| 20260507230736 | 20 | 261 | 4.8 | 6.4 | 0.00 | 0.00 | 0.00 | 34 | 1015.0 |
| 20260507230235 | 19 | 249 | 4.8 | 8.0 | 0.00 | 0.00 | 0.00 | 33 | 1015.0 |
| 20260507225735 | 20 | 272 | 8.0 | 8.0 | 0.00 | 0.00 | 0.00 | 33 | 1015.0 |
| 20260507225236 | 20 | 251 | 1.6 | 8.0 | 0.00 | 0.00 | 0.00 | 32 | 1015.0 |
| 20260507224736 | 20 | 324 | 4.8 | 8.0 | 0.00 | 0.00 | 0.00 | 32 | 1015.0 |
| 20260507224235 | 20 | 261 | 1.6 | 4.8 | 0.00 | 0.00 | 0.00 | 32 | 1016.0 |
| 20260507223735 | 20 | 230 | 1.6 | 6.4 | 0.00 | 0.00 | 0.00 | 34 | 1015.0 |
| 20260507223236 | 19 | 243 | 4.8 | 8.0 | 0.00 | 0.00 | 0.00 | 34 | 1016.0 |
| 20260507222736 | 19 | 218 | 0.0 | 6.4 | 0.00 | 0.00 | 0.00 | 33 | 1016.0 |
| 20260507222236 | 20 | 225 | 6.4 | 11.3 | 0.00 | 0.00 | 0.00 | 32 | 1016.0 |
| 20260507221735 | 19 | 241 | 4.8 | 6.4 | 0.00 | 0.00 | 0.00 | 33 | 1016.0 |
| 20260507221236 | 19 | 261 | 3.2 | 6.4 | 0.00 | 0.00 | 0.00 | 32 | 1016.0 |
| 20260507220735 | 19 | 235 | 1.6 | 6.4 | 0.00 | 0.00 | 0.00 | 33 | 1016.0 |
| 20260507220236 | 18 | 219 | 3.2 | 6.4 | 0.00 | 0.00 | 0.00 | 34 | 1016.0 |
| 20260507215735 | 18 | 261 | 6.4 | 8.0 | 0.00 | 0.00 | 0.00 | 33 | 1016.0 |
| 20260507215235 | 18 | 265 | 3.2 | 6.4 | 0.00 | 0.00 | 0.00 | 33 | 1016.0 |
| 20260507214735 | 20 | 267 | 9.7 | 16.1 | 0.00 | 0.00 | 0.00 | 32 | 1016.0 |
| 20260507214235 | 20 | 247 | 3.2 | 8.0 | 0.00 | 0.00 | 0.00 | 34 | 1016.0 |
| 20260507213742 | 20 | 217 | 4.8 | 8.0 | 0.00 | 0.00 | 0.00 | 33 | 1016.0 |
| 20260507213235 | 19 | 253 | 3.2 | 6.4 | 0.00 | 0.00 | 0.00 | 34 | 1016.0 |
| 20260507212736 | 20 | 226 | 4.8 | 9.7 | 0.00 | 0.00 | 0.00 | 33 | 1016.0 |
| 20260507212236 | 19 | 235 | 1.6 | 4.8 | 0.00 | 0.00 | 0.00 | 34 | 1016.0 |
| 20260507211736 | 18 | 221 | 1.6 | 6.4 | 0.00 | 0.00 | 0.00 | 34 | 1016.0 |
| 20260507211237 | 19 | 246 | 9.7 | 11.3 | 0.00 | 0.00 | 0.00 | 32 | 1016.0 |
| 20260507210736 | 18 | 273 | 3.2 | 6.4 | 0.00 | 0.00 | 0.00 | 34 | 1016.0 |
| 20260507210235 | 18 | 250 | 3.2 | 6.4 | 0.00 | 0.00 | 0.00 | 33 | 1016.0 |
| 20260507205735 | 18 | 254 | 8.0 | 9.7 | 0.00 | 0.00 | 0.00 | 33 | 1016.0 |
| 20260507205236 | 18 | 273 | 6.4 | 8.0 | 0.00 | 0.00 | 0.00 | 34 | 1017.0 |
| 20260507204736 | 19 | 230 | 1.6 | 8.0 | 0.00 | 0.00 | 0.00 | 33 | 1017.0 |
| 20260507204235 | 17 | 265 | 4.8 | 6.4 | 0.00 | 0.00 | 0.00 | 33 | 1017.0 |
| 20260507203736 | 18 | 225 | 1.6 | 8.0 | 0.00 | 0.00 | 0.00 | 35 | 1017.0 |
| 20260507203235 | 18 | 226 | 3.2 | 8.0 | 0.00 | 0.00 | 0.00 | 33 | 1017.0 |
| 20260507202736 | 18 | 267 | 8.0 | 9.7 | 0.00 | 0.00 | 0.00 | 32 | 1017.0 |
| 20260507202236 | 18 | 269 | 8.0 | 12.9 | 0.00 | 0.00 | 0.00 | 33 | 1017.0 |
| 20260507201736 | 18 | 277 | 6.4 | 8.0 | 0.00 | 0.00 | 0.00 | 34 | 1017.0 |
| 20260507201235 | 18 | 295 | 6.4 | 6.4 | 0.00 | 0.00 | 0.00 | 33 | 1017.0 |
| 20260507200736 | 18 | 247 | 3.2 | 8.0 | 0.00 | 0.00 | 0.00 | 34 | 1017.0 |
| 20260507200236 | 18 | 232 | 3.2 | 6.4 | 0.00 | 0.00 | 0.00 | 34 | 1017.0 |
| 20260507195736 | 18 | 288 | 3.2 | 6.4 | 0.00 | 0.00 | 0.00 | 36 | 1017.0 |
| 20260507195237 | 18 | 203 | 1.6 | 6.4 | 0.00 | 0.00 | 0.00 | 37 | 1017.0 |
| 20260507194735 | 17 | 253 | 0.0 | 1.6 | 0.00 | 0.00 | 0.00 | 35 | 1017.0 |
| 20260507194238 | 18 | 167 | 3.2 | 3.2 | 0.00 | 0.00 | 0.00 | 35 | 1017.0 |
| 20260507193737 | 18 | 232 | 3.2 | 9.7 | 0.00 | 0.00 | 0.00 | 35 | 1017.0 |
| 20260507193235 | 18 | 278 | 9.7 | 9.7 | 0.00 | 0.00 | 0.00 | 33 | 1017.0 |
| 20260507192740 | 17 | 235 | 8.0 | 11.3 | 0.00 | 0.00 | 0.00 | 33 | 1017.0 |
| 20260507192236 | 17 | 243 | 0.0 | 9.7 | 0.00 | 0.00 | 0.00 | 33 | 1017.0 |
| 20260507191735 | 17 | 242 | 6.4 | 11.3 | 0.00 | 0.00 | 0.00 | 34 | 1018.0 |
| 20260507191235 | 18 | 252 | 3.2 | 9.7 | 0.00 | 0.00 | 0.00 | 33 | 1018.0 |
| 20260507190737 | 18 | 229 | 6.4 | 9.7 | 0.00 | 0.00 | 0.00 | 34 | 1018.0 |
| 20260507190237 | 17 | 279 | 8.0 | 8.0 | 0.00 | 0.00 | 0.00 | 34 | 1018.0 |
| 20260507185736 | 17 | 229 | 3.2 | 8.0 | 0.00 | 0.00 | 0.00 | 34 | 1018.0 |
| 20260507185235 | 17 | 236 | 6.4 | 8.0 | 0.00 | 0.00 | 0.00 | 34 | 1018.0 |
| 20260507184736 | 17 | 257 | 1.6 | 11.3 | 0.00 | 0.00 | 0.00 | 34 | 1018.0 |
| 20260507184236 | 17 | 271 | 4.8 | 8.0 | 0.00 | 0.00 | 0.00 | 35 | 1018.0 |
| 20260507183736 | 17 | 259 | 11.3 | 11.3 | 0.00 | 0.00 | 0.00 | 34 | 1018.0 |
| 20260507183236 | 16 | 266 | 4.8 | 9.7 | 0.00 | 0.00 | 0.00 | 38 | 1018.0 |
| 20260507182736 | 16 | 169 | 1.6 | 4.8 | 0.00 | 0.00 | 0.00 | 35 | 1018.0 |
| 20260507182235 | 17 | 268 | 8.0 | 11.3 | 0.00 | 0.00 | 0.00 | 35 | 1018.0 |
| 20260507181736 | 17 | 252 | 1.6 | 8.0 | 0.00 | 0.00 | 0.00 | 34 | 1018.0 |
| 20260507181236 | 17 | 256 | 3.2 | 6.4 | 0.00 | 0.00 | 0.00 | 37 | 1018.0 |
| 20260507180736 | 17 | 269 | 8.0 | 9.7 | 0.00 | 0.00 | 0.00 | 40 | 1018.0 |